Asheville, NC

6:03 AM EDT on April 30, 2017 (GMT -0400)
Asheville Regional

Weather History for KAVL - January, 2009

Change the Weather History Date:

Sunday, January 4, 2009

  Actual Average Record
Temperature  
Mean Temperature 56 °F 37 °F  
Max Temperature 66 °F 47 °F 71 °F (2005)
Min Temperature 46 °F 27 °F -1 °F (1879)
Degree Days  
Heating Degree Days 9 28  
Month to date heating degree days 90 112  
Since 1 July heating degree days 1815 1773  
Cooling Degree Days 0 0  
Month to date cooling degree days 0 0  
Year to date cooling degree days 0 0  
Growing Degree Days 6 (Base 50)    
Moisture  
Dew Point 49 °F    
Average Humidity 76    
Maximum Humidity 100    
Minimum Humidity 52    
Precipitation  
Precipitation 0.01 in 0.11 in 1.24 in (2015)
Month to date precipitation 0.02 0.43  
Year to date precipitation 0.02 0.43  
Snow  
Snow 0.00 in 0.10 in 4.00 in (1878)
Month to date snowfall 0.0 0.4  
Since 1 July snowfall T 1.4  
Snow Depth -    
Sea Level Pressure  
Sea Level Pressure 30.10 in    
Wind  
Wind Speed 2 mph (South)    
Max Wind Speed 9 mph    
Max Gust Speed 14 mph    
Visibility 7 miles    
Events Fog    
T = Trace of Precipitation, MM = Missing Value Source: NWS Daily Summary

Daily Weather History Graph

Daily Weather History Graph

Search for Another Location

Airport or City:

Trip Planner

Search our weather history database for the weather conditions in past years. The results will help you decide how hot, cold, wet, or windy it might be!

Date:

Astronomy

Jan. 04, 2009 Rise Set
Actual Time 7:39 AM EST 5:31 PM EST
Civil Twilight 7:11 AM EST 5:59 PM EST
Nautical Twilight 6:39 AM EST 6:30 PM EST
Astronomical Twilight 6:09 AM EST 7:01 PM EST
Moon 11:56 AM EST (1/4) 12:30 AM EST (1/4)
Length of Visible Light 10h 47m
Length of Day
9h 51m
First Quarter, 52% of the Moon is Illuminated
Jan 4
First Quarter
Jan 10
Full
Jan 17
Last Quarter
Jan 26
New
Feb 2
First Quarter

Hourly Weather History & Observations

Time (EST) Temp. Dew Point Humidity Pressure Visibility Wind Dir Wind Speed Gust Speed Precip Events Conditions
12:54 AM 48.0 °F 46.9 °F 96% 30.06 in 7.0 mi Calm Calm - N/A   Overcast
1:54 AM 48.0 °F 46.9 °F 96% 30.05 in 7.0 mi Calm Calm - N/A   Overcast
2:54 AM 48.9 °F 48.0 °F 97% 30.05 in 7.0 mi Calm Calm - N/A   Overcast
3:05 AM 48.2 °F 48.2 °F 100% 30.08 in 7.0 mi Calm Calm - N/A   Overcast
3:54 AM 48.9 °F 48.0 °F 97% 30.05 in 7.0 mi South 3.5 mph - N/A   Overcast
4:34 AM 48.2 °F 48.2 °F 100% 30.07 in 6.0 mi Calm Calm - N/A   Overcast
4:54 AM 48.9 °F 48.0 °F 97% 30.05 in 4.0 mi Calm Calm - N/A   Overcast
5:54 AM 51.1 °F 50.0 °F 96% 30.06 in 10.0 mi SE 3.5 mph - N/A   Mostly Cloudy
6:54 AM 51.1 °F 48.9 °F 92% 30.06 in 10.0 mi Calm Calm - N/A   Mostly Cloudy
7:54 AM 48.9 °F 48.0 °F 97% 30.09 in 10.0 mi Calm Calm - N/A   Scattered Clouds
8:54 AM 48.9 °F 48.0 °F 97% 30.13 in 8.0 mi North 4.6 mph - N/A   Overcast
9:54 AM 52.0 °F 50.0 °F 93% 30.12 in 10.0 mi Calm Calm - 0.01 in   Mostly Cloudy
10:54 AM 55.9 °F 51.1 °F 84% 30.12 in 10.0 mi NW 3.5 mph - N/A   Overcast
11:54 AM 57.0 °F 51.1 °F 81% 30.11 in 10.0 mi SSW 3.5 mph - N/A   Mostly Cloudy
12:54 PM 61.0 °F 48.9 °F 64% 30.07 in 10.0 mi Calm Calm - N/A   Clear
1:54 PM 63.0 °F 46.0 °F 54% 30.05 in 10.0 mi SSE 4.6 mph - N/A   Clear
2:54 PM 64.9 °F 46.9 °F 52% 30.04 in 10.0 mi Variable 3.5 mph - N/A   Clear
3:54 PM 64.9 °F 48.0 °F 54% 30.05 in 10.0 mi Calm Calm - N/A   Clear
4:54 PM 61.0 °F 52.0 °F 72% 30.06 in 10.0 mi SSE 5.8 mph - N/A   Clear
5:54 PM 57.0 °F 51.1 °F 81% 30.08 in 10.0 mi SSE 4.6 mph - N/A   Clear
6:54 PM 53.1 °F 50.0 °F 89% 30.11 in 10.0 mi SSE 4.6 mph - N/A   Clear
7:54 PM 50.0 °F 50.0 °F 100% 30.12 in 10.0 mi South 3.5 mph - N/A   Clear
8:20 PM 48.2 °F 48.2 °F 100% 30.14 in 9.0 mi Calm Calm - N/A   Scattered Clouds
8:28 PM 50.0 °F 50.0 °F 100% 30.14 in 9.0 mi Calm Calm - N/A   Mostly Cloudy
8:46 PM 51.8 °F 51.8 °F 100% 30.14 in 6.0 mi SSW 3.5 mph - N/A   Overcast
8:54 PM 51.1 °F 51.1 °F 100% 30.12 in 5.0 mi Calm Calm - N/A   Overcast
9:19 PM 51.8 °F 51.8 °F 100% 30.14 in 1.5 mi Calm Calm - N/A   Overcast
9:37 PM 50.0 °F 50.0 °F 100% 30.14 in 0.8 mi Calm Calm - N/A   Overcast
9:54 PM 50.0 °F 50.0 °F 100% 30.12 in 0.8 mi South 4.6 mph - N/A   Mist
10:01 PM 50.0 °F 50.0 °F 100% 30.14 in 1.0 mi South 4.6 mph - N/A   Mist
10:11 PM 50.0 °F 50.0 °F 100% 30.13 in 0.5 mi South 3.5 mph - N/A Fog Fog
10:54 PM 48.9 °F 48.9 °F 100% 30.11 in 0.5 mi Calm Calm - N/A Fog Fog
11:13 PM 50.0 °F 50.0 °F 100% 30.13 in 0.2 mi Calm Calm - N/A Fog Fog
11:54 PM 46.9 °F 46.9 °F 100% 30.10 in 0.2 mi Calm Calm - N/A Fog Fog